Regional Weather Roundup
Issued by NWS Kansas City/Pleasant Hill, MO

Home | Current Version | Previous Version | Graphics & Text | Print | Product List | Glossary Off
Versions: 1 2 3 4 5 6 7 8 9 10 11 12 13 14 15 16 17 18 19 20 21 22 23 24 25 26 27 28 29 30 31 32 33 34 35 36 37 38 39 40 41 42 43 44 45 46 47 48 49 50

000
ASUS43 KEAX 212110
RWREAX

WEATHER ROUNDUP FOR EASTERN KANSAS AND NORTHWEST MISSOURI
NATIONAL WEATHER SERVICE KANSAS CITY/PLEASANT HILL MO
400 PM CDT THU AUG 21 2014

KSZ040-057-103>105-MOZ028-029-037-043-212200-
...KANSAS CITY METROPOLITAN AREA...

CITY           SKY/WX    TMP DP  RH WIND       PRES   REMARKS
K.C. INTL      MOSUNNY   94  74  52 S18       29.87F HX 104
K.C. DOWNTOWN  MOSUNNY   96  72  45 S14       29.85F HX 104
LEES SUMMIT    SUNNY     93  70  46 S16G23    29.89F HX  99
OLATHE - IXD   SUNNY     97  70  41 S18G26    29.88F HX 103
OLATHE - OJC   SUNNY     94  72  48 S12       29.88F HX 102
LAWRENCE       SUNNY    100  70  37 SW15G26   29.85F HX 107

$$

MOZ001>008-011>017-020>025-030>033-038>040-044>046-053-054-212200-
...NORTHERN AND CENTRAL MISSOURI...

CITY           SKY/WX    TMP DP  RH WIND       PRES   REMARKS
ST. JOSEPH     MOSUNNY   92  76  59 S15G23    29.82F HX 104
MOSBY          MOCLDY    93  72  49 S9G20     29.86F HX 100
WHITEMAN AFB   MOSUNNY   93  67  42 SW16      29.90F HX  96
CLINTON        SUNNY     93  73  52 SW10G17   29.91F HX 102
SEDALIA        MOSUNNY   95  73  48 S16G23    29.92F HX 104
WARSAW         NOT AVBL
MARSHALL       CLOUDY    93  79  62 SW8       29.91S HX 110
CHILLICOTHE      N/A     88  76  67 S12       29.88F HX  99
MOBERLY        PTSUNNY   90  73  58 SW7       29.93F HX  98
KIRKSVILLE     MOSUNNY   87  76  69 S7        29.91F HX  97

$$

MOZ041-047>049-056>058-063>065-088>090-097-212200-
...EASTERN AND SOUTHERN MISSOURI...

CITY           SKY/WX    TMP DP  RH WIND       PRES   REMARKS
ST. LOUIS INTL PTSUNNY   95  73  48 SW10      29.95F HX 104
SPIRIT OF STL  MOSUNNY   93  74  53 S9        29.93F HX 103
COLUMBIA       SUNNY     93  72  50 SW14      29.93F HX 101
JEFFERSON CITY SUNNY     95  71  45 SW12      29.91F HX 102
MEXICO         MOSUNNY   93  81  66 S13       29.92F HX 113
HANNIBAL       MOSUNNY   93  70  46 SW8       29.92F HX  99
ROLLA          MOSUNNY   93  71  48 S10       29.96F HX 100
LEBANON        MOSUNNY   97  59  28 S13       29.98F HX  96
OSAGE BEACH    MOSUNNY   97  70  41 S9        29.94S HX 103
SPRINGFIELD    SUNNY     97  63  32 SW14      29.97F HX  98
BRANSON        MOSUNNY   99  64  32 SW8       30.02F HX 101
NEVADA         SUNNY     97  70  41 SW13G18   29.93F HX 103
JOPLIN         MOSUNNY   95  70  44 S15G23    29.95F HX 101
WEST PLAINS    MOSUNNY   92  69  47 S12       30.03F HX  97

$$

IAZ060-094-KSZ022-034>040-054-083-096-NEZ052-066-093-212200-
...KANSAS...SOUTHEAST NEBRASKA AND IOWA...

CITY           SKY/WX    TMP DP  RH WIND       PRES   REMARKS
TOPEKA         SUNNY     99  71  40 S13G21    29.84F HX 107
MANHATTAN      SUNNY    102  67  31 S14G26    29.81F HX 107
EMPORIA        SUNNY     97  69  40 S17G28    29.87F HX 103
CHANUTE        SUNNY     97  69  40 S22       29.92F HX 103
WICHITA        MOSUNNY   98  68  37 S20G31    29.86F HX 103
OMAHA          MOSUNNY   91  68  46 SW9       29.83F HX  95
LINCOLN        CLOUDY    87  71  58 NW7       29.85S HX  93
FALLS CITY     PTSUNNY   96  73  47 S12G23    29.80F HX 105
LAMONI         CLOUDY    86  75  69 S7        29.88S HX  95
DES MOINES     MOSUNNY   86  75  69 S14       29.85S HX  95

$$



USA.gov is the U.S. government's official web portal to all federal, state and local government web resources and services.